Flag for Russia Weather past 2 weeks in Samara, Russia

Now
27 °F

Snow showers. Mostly cloudy.


Feels Like: 18 °F
Forecast: 28 / 34 °F
Wind: 8 mph from Southwest

Location: Samara

Current Time: Dec 19, 2014 at 5:05:00 AM

Latest Report: Dec 19, 2014 at 4:00 AM


Visibility: 1 mi

Pressure: 30.01 "Hg

Humidity: 93%

Dew point: 25 °F

Location of SamaraLocation

Historic Weather in Samara — Graph

°F

Samara temperature yesterday

Maximum temperature yesterday: 25 °F (at 1:00 AM)
Minimum temperature yesterday: 21 °F (at 4:30 AM)
Average temperature yesterday: 23 °F

Past Weeks' High & Low Weather Summary

 TemperatureHumidityPressure
High32 °F (Dec 5, 11:30 AM)100% (Dec 12, 4:30 PM)30.60 "Hg (Dec 12, 4:30 PM)
Low0 °F (Dec 6, 7:30 AM)49% (Dec 7, 8:30 PM)29.77 "Hg (Dec 4, 5:30 PM)
Average22 °F81%30.30 "Hg
* Reported Dec 4 4:00 AM — Dec 19 4:00 AM, Samara, Weather by CustomWeather, © 2014

Note: Actual official high and low records may vary slightly from our data, if they occured in-between our weather recording intervals... More about our weather records

Advertising

Samara weather history for previous 24 hours

 ConditionsComfort  
Time TempWeatherWind HumidityBarometerVisibility
4:00 AM
Dec 19
27 °FSnow showers. Mostly cloudy.8 mph93%30.01 "Hg1 mi
3:30 AM27 °FSnow showers. Mostly cloudy.8 mph93%30.01 "Hg1 mi
3:00 AM27 °FSnow showers. Mostly cloudy.10 mph93%30.01 "Hg1 mi
2:30 AM27 °FSnow showers. Mostly cloudy.13 mph93%30.01 "Hg1 mi
2:00 AM27 °FSnow showers. Mostly cloudy.13 mph93%30.01 "Hg1 mi
1:30 AM27 °FSnow flurries. Ice fog.10 mph86%30.01 "Hg1 mi
1:00 AM27 °FSnow flurries. Ice fog.10 mph86%30.01 "Hg2 mi
12:30 AM27 °FLight snow. Ice fog.13 mph86%30.01 "Hg1 mi
12:00 AM25 °FLight snow. Ice fog.13 mph93%30.01 "Hg1 mi
11:30 PM
Dec 18
25 °FLight snow. Ice fog.13 mph93%30.04 "Hg1 mi
11:00 PM25 °FLight snow. Ice fog.13 mph93%30.04 "Hg2 mi
10:30 PM25 °FLight snow. Ice fog.15 mph86%30.04 "Hg1 mi
10:00 PM25 °FLight snow. Ice fog.13 mph86%30.04 "Hg2 mi
9:30 PM23 °FLight snow. Ice fog.15 mph93%30.04 "Hg1 mi
9:00 PM23 °FSnow. Low clouds.15 mph86%30.04 "Hg1 mi
8:30 PM21 °FSnow. Low clouds.13 mph93%30.07 "Hg1 mi
8:00 PM21 °FSnow. Low clouds.13 mph93%30.07 "Hg1 mi
7:30 PM21 °FIce fog.10 mph93%30.07 "Hg2 mi
7:00 PM21 °FMostly cloudy.8 mph86%30.07 "HgN/A
6:30 PM21 °FMostly cloudy.13 mph86%30.07 "HgN/A
6:00 PM23 °FMostly cloudy.15 mph80%30.07 "HgN/A
5:30 PM23 °FMostly cloudy.13 mph86%30.07 "HgN/A
5:00 PM23 °FMostly cloudy.10 mph86%30.07 "HgN/A
4:30 PM25 °FIce fog.15 mph86%30.07 "Hg2 mi
4:00 PM25 °FIce fog.22 mph93%30.04 "Hg2 mi
3:30 PM25 °FIce fog.20 mph93%30.04 "Hg2 mi
3:00 PM25 °FIce fog.24 mph93%30.04 "Hg2 mi
2:30 PM25 °FIce fog.24 mph93%30.04 "Hg2 mi
2:00 PM25 °FIce fog.20 mph86%30.07 "Hg2 mi
1:30 PM25 °FMore clouds than sun.20 mph86%30.07 "HgN/A
1:00 PM25 °FMostly cloudy.17 mph86%30.07 "HgN/A
12:30 PM25 °FMostly cloudy.17 mph86%30.09 "HgN/A
12:00 PM25 °FMore clouds than sun.13 mph80%30.09 "HgN/A
11:30 AM25 °FMore clouds than sun.13 mph80%30.12 "HgN/A
11:00 AM25 °FCloudy.10 mph80%30.12 "HgN/A
10:30 AM25 °FCloudy.13 mph80%30.12 "HgN/A
10:00 AM23 °FCloudy.13 mph86%30.12 "HgN/A
9:30 AM23 °FOvercast.15 mph86%30.12 "HgN/A
9:00 AM23 °FMostly cloudy.15 mph86%30.15 "HgN/A
8:30 AM23 °FMostly cloudy.13 mph86%30.15 "HgN/A
7:30 AM23 °FClear.13 mph80%30.18 "Hg10 mi
7:00 AM21 °FClear.15 mph86%30.18 "Hg10 mi
6:30 AM21 °FClear.13 mph86%30.18 "Hg10 mi
6:00 AM21 °FClear.13 mph86%30.18 "Hg10 mi
5:30 AM21 °FMostly cloudy.10 mph86%30.18 "HgN/A
5:00 AM21 °FMostly cloudy.20 mph93%30.21 "HgN/A
Weather by CustomWeather, © 2014

See weather overviewHow to use our weather pages